TimeEST,TemperatureF,Dew PointF,Humidity,Sea Level PressureIn,VisibilityMPH,Wind Direction,Wind SpeedMPH,Gust SpeedMPH,PrecipitationIn,Events,Conditions,WindDirDegrees,DateUTC
12:12 AM,35.2,32.0,88,29.61,10.0,West,10.4,-,N/A,,Overcast,260,2014-01-14 05:12:00
12:32 AM,35.6,32.0,87,29.62,10.0,West,8.1,-,N/A,,Overcast,260,2014-01-14 05:32:00
12:53 AM,35.8,31.8,86,29.62,10.0,West,10.4,-,N/A,,Overcast,270,2014-01-14 05:53:00
1:12 AM,35.8,31.5,84,29.62,10.0,West,8.1,-,N/A,,Overcast,270,2014-01-14 06:12:00
1:32 AM,35.6,30.7,82,29.63,10.0,West,8.1,-,N/A,,Overcast,270,2014-01-14 06:32:00
1:53 AM,34.9,29.3,80,29.64,10.0,WSW,8.1,-,N/A,,Overcast,250,2014-01-14 06:53:00
2:12 AM,34.0,28.4,80,29.65,10.0,West,8.1,-,N/A,,Mostly Cloudy,270,2014-01-14 07:12:00
2:32 AM,33.8,28.6,81,29.66,10.0,West,9.2,-,N/A,,Mostly Cloudy,260,2014-01-14 07:32:00
2:53 AM,34.3,27.5,76,29.67,10.0,West,9.2,-,N/A,,Overcast,270,2014-01-14 07:53:00
3:12 AM,33.8,26.6,75,29.67,10.0,West,11.5,-,N/A,,Overcast,260,2014-01-14 08:12:00
3:32 AM,32.9,26.1,76,29.68,10.0,West,9.2,-,N/A,,Overcast,270,2014-01-14 08:32:00
3:53 AM,32.0,25.3,76,29.68,10.0,West,6.9,-,N/A,,Mostly Cloudy,260,2014-01-14 08:53:00
4:12 AM,32.0,25.3,76,29.68,10.0,West,5.8,-,N/A,,Mostly Cloudy,260,2014-01-14 09:12:00
4:32 AM,32.2,24.8,74,29.69,10.0,West,8.1,-,N/A,,Overcast,260,2014-01-14 09:32:00
4:52 AM,32.0,24.3,73,29.69,10.0,West,6.9,-,N/A,,Overcast,260,2014-01-14 09:52:00
5:12 AM,31.1,23.5,74,29.69,10.0,WSW,5.8,-,N/A,,Scattered Clouds,250,2014-01-14 10:12:00
5:33 AM,29.8,23.0,76,29.69,10.0,WSW,4.6,-,N/A,,Clear,250,2014-01-14 10:33:00
5:52 AM,28.4,22.3,78,29.70,10.0,WSW,4.6,-,N/A,,Clear,240,2014-01-14 10:52:00
6:12 AM,28.0,22.1,78,29.70,10.0,WSW,4.6,-,N/A,,Clear,250,2014-01-14 11:12:00
6:33 AM,28.0,22.5,80,29.71,10.0,WSW,4.6,-,N/A,,Clear,240,2014-01-14 11:33:00
6:52 AM,27.9,22.1,79,29.71,10.0,SW,3.5,-,N/A,,Clear,230,2014-01-14 11:52:00
7:12 AM,27.0,21.2,79,29.71,10.0,Calm,Calm,-,N/A,,Clear,0,2014-01-14 12:12:00
7:33 AM,23.9,19.0,82,29.71,10.0,SSW,3.5,-,N/A,,Clear,210,2014-01-14 12:33:00
7:52 AM,22.6,18.1,83,29.72,10.0,SSW,3.5,-,N/A,,Clear,210,2014-01-14 12:52:00
8:13 AM,23.5,18.7,82,29.72,10.0,SSW,3.5,-,N/A,,Clear,210,2014-01-14 13:13:00
8:33 AM,22.6,18.1,83,29.72,10.0,SW,4.6,-,N/A,,Clear,220,2014-01-14 13:33:00
8:52 AM,23.9,18.7,80,29.73,10.0,SSW,4.6,-,N/A,,Clear,210,2014-01-14 13:52:00
9:13 AM,25.2,19.8,80,29.75,10.0,SSW,4.6,-,N/A,,Clear,200,2014-01-14 14:13:00
9:33 AM,27.0,20.7,77,29.76,10.0,SW,5.8,-,N/A,,Clear,230,2014-01-14 14:33:00
9:52 AM,28.0,21.2,76,29.77,10.0,SSW,5.8,-,N/A,,Clear,210,2014-01-14 14:52:00
10:13 AM,29.1,22.5,76,29.76,10.0,SSW,5.8,-,N/A,,Clear,200,2014-01-14 15:13:00
10:33 AM,30.0,23.9,78,29.77,10.0,SSW,5.8,-,N/A,,Clear,210,2014-01-14 15:33:00
10:52 AM,30.6,24.6,79,29.76,10.0,SSW,6.9,-,N/A,,Clear,210,2014-01-14 15:52:00
11:13 AM,31.1,25.2,79,29.75,10.0,SSW,6.9,-,N/A,,Clear,210,2014-01-14 16:13:00
11:32 AM,31.8,25.7,78,29.75,10.0,SSW,3.5,-,N/A,,Clear,210,2014-01-14 16:32:00
11:52 AM,32.7,26.1,76,29.74,10.0,WSW,4.6,-,N/A,,Clear,250,2014-01-14 16:52:00
12:12 PM,32.9,25.3,74,29.74,10.0,SW,5.8,-,N/A,,Clear,220,2014-01-14 17:12:00
12:32 PM,33.8,25.5,72,29.73,10.0,SW,3.5,-,N/A,,Clear,230,2014-01-14 17:32:00
12:53 PM,33.4,25.3,72,29.72,10.0,South,3.5,-,N/A,,Clear,190,2014-01-14 17:53:00
1:12 PM,33.4,25.3,72,29.71,10.0,Calm,Calm,-,N/A,,Clear,0,2014-01-14 18:12:00
1:32 PM,34.0,25.5,71,29.71,10.0,South,3.5,-,N/A,,Clear,190,2014-01-14 18:32:00
1:53 PM,34.3,25.2,69,29.72,10.0,Calm,Calm,-,N/A,,Clear,0,2014-01-14 18:53:00
2:12 PM,34.3,26.2,72,29.71,10.0,SSE,6.9,-,N/A,,Mostly Cloudy,160,2014-01-14 19:12:00
2:32 PM,34.7,26.1,71,29.70,10.0,SE,3.5,-,N/A,,Mostly Cloudy,140,2014-01-14 19:32:00
2:53 PM,34.7,26.4,72,29.70,10.0,SSE,4.6,-,N/A,,Overcast,150,2014-01-14 19:53:00
3:12 PM,34.3,25.7,71,29.70,10.0,SSE,4.6,-,N/A,,Overcast,150,2014-01-14 20:12:00
3:32 PM,34.7,25.7,70,29.70,10.0,SSE,5.8,-,N/A,,Overcast,150,2014-01-14 20:32:00
3:53 PM,34.7,26.1,71,29.70,10.0,SSE,5.8,-,N/A,,Overcast,150,2014-01-14 20:53:00
4:12 PM,34.3,26.6,73,29.69,10.0,ESE,3.5,-,N/A,,Overcast,120,2014-01-14 21:12:00
4:32 PM,34.3,27.1,75,29.68,10.0,SE,4.6,-,N/A,,Overcast,130,2014-01-14 21:32:00
4:53 PM,33.8,26.4,74,29.68,10.0,SE,6.9,-,N/A,,Overcast,130,2014-01-14 21:53:00
5:12 PM,33.4,26.6,76,29.67,10.0,SE,3.5,-,N/A,,Overcast,130,2014-01-14 22:12:00
5:32 PM,33.3,26.6,77,29.67,10.0,SE,5.8,-,N/A,,Overcast,130,2014-01-14 22:32:00
5:53 PM,33.3,26.8,77,29.67,10.0,SE,4.6,-,N/A,,Overcast,140,2014-01-14 22:53:00
6:12 PM,33.8,27.1,77,29.67,10.0,SSE,5.8,-,N/A,,Overcast,150,2014-01-14 23:12:00
6:33 PM,33.8,27.5,78,29.67,10.0,SSE,8.1,-,N/A,,Overcast,150,2014-01-14 23:33:00
6:53 PM,34.2,28.0,78,29.65,10.0,SE,8.1,-,N/A,,Overcast,140,2014-01-14 23:53:00
7:12 PM,34.0,28.0,79,29.66,10.0,SSE,8.1,-,N/A,,Overcast,150,2014-01-15 00:12:00
7:33 PM,34.2,28.2,79,29.67,7.0,South,11.5,-,N/A,,Overcast,180,2014-01-15 00:33:00
7:53 PM,33.6,29.1,84,29.67,3.0,South,15.0,-,N/A,Snow,Light Snow,180,2014-01-15 00:53:00
8:12 PM,32.9,30.2,90,29.66,2.5,South,16.1,-,N/A,Snow,Light Snow,170,2014-01-15 01:12:00
8:33 PM,32.5,30.6,92,29.65,3.0,South,12.7,-,N/A,Snow,Light Snow,170,2014-01-15 01:33:00
8:52 PM,32.5,30.7,93,29.65,4.0,South,11.5,-,N/A,,Overcast,180,2014-01-15 01:52:00
9:12 PM,32.5,30.9,94,29.65,4.0,South,11.5,-,N/A,,Overcast,180,2014-01-15 02:12:00
9:33 PM,32.9,31.1,93,29.65,4.0,South,12.7,-,N/A,,Overcast,180,2014-01-15 02:33:00
9:52 PM,33.1,31.5,94,29.65,4.0,South,11.5,-,N/A,,Overcast,180,2014-01-15 02:52:00
10:12 PM,33.1,31.5,94,29.64,4.0,South,10.4,-,N/A,,Overcast,190,2014-01-15 03:12:00
10:33 PM,33.3,31.5,93,29.64,5.0,South,10.4,-,N/A,,Overcast,190,2014-01-15 03:33:00
10:52 PM,32.2,28.0,85,29.65,7.0,WSW,20.7,31.1,N/A,,Overcast,250,2014-01-15 03:52:00
11:12 PM,31.5,24.6,76,29.65,10.0,WSW,13.8,20.7,N/A,,Overcast,240,2014-01-15 04:12:00
11:33 PM,31.1,23.2,72,29.65,10.0,WSW,11.5,20.7,N/A,,Overcast,240,2014-01-15 04:33:00
11:52 PM,31.1,21.2,67,29.65,10.0,WSW,16.1,26.5,N/A,,Overcast,240,2014-01-15 04:52:00